Overview Statistics Trail Chart Weather Telemetry Raw packets
 

This is the latest recevied weather packets stored in our database for station/object WA7SB-7. If no packets are shown the sender has not sent any weather packets the latest 10 day(s).

<< 54 55 56 57 58 59 60 >>
Time Temp. Humidity Pressure Rain* Wind** Luminosity Snow
1788526766 12.22° C 97% 1008.5 hPa 4.32 mm - - -
1788526528 12.22° C 97% 1008.5 hPa 4.57 mm - - -
1788526469 12.22° C 97% 1008.5 hPa 4.32 mm - - -
1788526232 12.22° C 97% 1008.5 hPa 4.57 mm - - -
1788526154 12.22° C 97% 1008.5 hPa 4.83 mm - - -
1788525917 12.22° C 96% 1008.4 hPa 4.57 mm - - -
1788525858 12.22° C 96% 1008.4 hPa 4.57 mm - - -
1788525621 12.22° C 97% 1008.4 hPa 4.57 mm - - -
1788525562 12.22° C 96% 1008.3 hPa 4.32 mm - - -
1788525325 12.22° C 97% 1008.4 hPa 4.57 mm - - -
1788525265 12.22° C 97% 1008.4 hPa 4.57 mm - - -
1788525025 12.22° C 97% 1008.4 hPa 4.32 mm - - -
1788524997 12.22° C 96% 1008.4 hPa 4.57 mm - - -
1788524729 12.22° C 97% 1008.4 hPa 4.57 mm - - -
1788524655 12.22° C 97% 1008.4 hPa 4.32 mm - - -
1788524414 12.22° C 97% 1008.3 hPa 3.81 mm - - -
1788524360 12.22° C 97% 1008.3 hPa 3.56 mm - - -
1788524120 12.22° C 96% 1008.4 hPa 2.79 mm - - -
1788524062 12.22° C 97% 1008.3 hPa 2.79 mm - - -
1788523825 12.22° C 97% 1008.1 hPa 2.29 mm - - -
1788523768 12.22° C 96% 1008.1 hPa 2.03 mm - - -
1788523532 12.22° C 96% 1008.3 hPa 1.78 mm - - -
1788523453 12.22° C 96% 1008.3 hPa 1.52 mm - - -
1788523228 12.22° C 96% 1008.2 hPa 1.52 mm - - -
1788523169 12.22° C 96% 1008.2 hPa 1.27 mm - - -

* Rain latest hour (hover to see other rain measurements)
** Current wind speed in m/s (hover to see current wind gust speed)